• In Belarus
  • List of Countries
  • For 7 days
  • Water Temperature
  • Satellite Maps
  • Weather Map
  • Weather Widgets
  • user-avatar
    Login

    Hourly Weather Hudzhan

    Today, 15 December, Saturday

    Time Temperature Precipitation Wind Pressure Humidity
    00:00 +9°C° 0 mm 3 mps 727 mmHg 27%
    01:00 +9°C° 0 mm 3 mps 727 mmHg 28%
    02:00 +9°C° 0 mm 3 mps 727 mmHg 28%
    03:00 +9°C° 0 mm 3 mps 727 mmHg 28%
    04:00 +8°C° 0 mm 3 mps 727 mmHg 29%
    05:00 +8°C° 0 mm 3 mps 726 mmHg 28%
    06:00 +8°C° 0 mm 3 mps 727 mmHg 28%
    07:00 +8°C° 0 mm 3 mps 727 mmHg 29%
    08:00 +8°C° 0 mm 3 mps 727 mmHg 29%
    09:00 +9°C° 0 mm 3 mps 727 mmHg 28%
    10:00 +11°C° 0 mm 3 mps 726 mmHg 26%
    11:00 +13°C° 0 mm 4 mps 726 mmHg 24%
    12:00 +14°C° 0 mm 4 mps 726 mmHg 23%
    13:00 +14°C° 0 mm 4 mps 725 mmHg 23%
    14:00 +14°C° 0 mm 5 mps 725 mmHg 23%
    15:00 +13°C° 0 mm 4 mps 725 mmHg 25%
    16:00 +12°C° 0 mm 4 mps 725 mmHg 27%
    17:00 +11°C° 0 mm 3 mps 725 mmHg 29%
    18:00 +10°C° 0 mm 3 mps 725 mmHg 29%
    19:00 +10°C° 0 mm 3 mps 725 mmHg 30%
    20:00 +10°C° 0 mm 2 mps 725 mmHg 31%
    21:00 +9°C° 0 mm 2 mps 725 mmHg 31%
    22:00 +9°C° 0 mm 2 mps 725 mmHg 31%
    23:00 +8°C° 0 mm 2 mps 725 mmHg 32%

    Tomorrow, 16 December, Sunday

    Time Temperature Precipitation Wind Pressure Humidity
    00:00 +8°C° 0 mm 2 mps 726 mmHg 35%
    01:00 +7°C° 0 mm 2 mps 726 mmHg 37%
    02:00 +7°C° 0 mm 2 mps 727 mmHg 40%
    03:00 +7°C° 0 mm 2 mps 727 mmHg 46%
    04:00 +6°C° 0 mm 2 mps 728 mmHg 52%
    05:00 +6°C° 0 mm 2 mps 728 mmHg 58%
    06:00 +6°C° 0 mm 2 mps 729 mmHg 64%
    07:00 +4°C° 0 mm 3 mps 729 mmHg 70%
    08:00 +4°C° 0 mm 3 mps 730 mmHg 76%
    09:00 +4°C° 0 mm 3 mps 730 mmHg 76%
    10:00 +5°C° 0 mm 3 mps 731 mmHg 77%
    11:00 +7°C° 0 mm 3 mps 731 mmHg 78%
    12:00 +7°C° 0 mm 3 mps 731 mmHg 76%
    13:00 +7°C° 0 mm 3 mps 730 mmHg 73%
    14:00 +8°C° 0 mm 2 mps 730 mmHg 71%
    15:00 +7°C° 0 mm 2 mps 730 mmHg 73%
    16:00 +7°C° 0 mm 2 mps 730 mmHg 75%
    17:00 +7°C° 0 mm 1 mps 730 mmHg 77%
    18:00 +6°C° 0 mm 2 mps 730 mmHg 75%
    19:00 +6°C° 0 mm 2 mps 730 mmHg 73%
    20:00 +6°C° 0 mm 2 mps 730 mmHg 71%
    21:00 +6°C° 0 mm 2 mps 729 mmHg 69%
    22:00 +5°C° 0 mm 3 mps 729 mmHg 67%
    23:00 +5°C° 0 mm 3 mps 728 mmHg 64%

    Day after tomorrow, 17 December, Monday

    Time Temperature Precipitation Wind Pressure Humidity
    00:00 +5°C° 0 mm 3 mps 728 mmHg 62%
    01:00 +5°C° 0 mm 3 mps 728 mmHg 59%
    02:00 +6°C° 0 mm 4 mps 727 mmHg 57%
    03:00 +6°C° 0 mm 4 mps 727 mmHg 56%
    04:00 +7°C° 0 mm 3 mps 727 mmHg 55%
    05:00 +7°C° 0 mm 3 mps 726 mmHg 54%
    06:00 +7°C° 0 mm 3 mps 726 mmHg 53%
    07:00 +7°C° 0 mm 3 mps 726 mmHg 52%
    08:00 +7°C° 0 mm 3 mps 727 mmHg 51%
    09:00 +7°C° 0 mm 4 mps 726 mmHg 47%
    10:00 +10°C° 0 mm 4 mps 726 mmHg 42%
    11:00 +11°C° 0 mm 4 mps 726 mmHg 38%
    12:00 +11°C° 0 mm 4 mps 726 mmHg 36%
    13:00 +12°C° 0 mm 4 mps 726 mmHg 35%
    14:00 +12°C° 0 mm 4 mps 726 mmHg 33%
    15:00 +12°C° 0 mm 4 mps 726 mmHg 36%
    16:00 +11°C° 0 mm 3 mps 726 mmHg 38%
    17:00 +10°C° 0 mm 3 mps 726 mmHg 40%
    18:00 +10°C° 0 mm 3 mps 726 mmHg 40%
    19:00 +10°C° 0 mm 3 mps 727 mmHg 40%
    20:00 +10°C° 0 mm 2 mps 727 mmHg 41%
    21:00 +9°C° 0 mm 2 mps 727 mmHg 41%
    22:00 +9°C° 0 mm 2 mps 727 mmHg 42%
    23:00 +9°C° 0 mm 2 mps 727 mmHg 43%

    18 December, Tuesday

    Time Temperature Precipitation Wind Pressure Humidity
    00:00 +9°C° 0 mm 2 mps 726 mmHg 44%
    01:00 +8°C° 0 mm 2 mps 726 mmHg 46%
    02:00 +8°C° 0 mm 2 mps 726 mmHg 48%
    03:00 +7°C° 0 mm 2 mps 726 mmHg 48%
    04:00 +7°C° 0 mm 2 mps 726 mmHg 49%
    05:00 +7°C° 0 mm 2 mps 725 mmHg 49%
    06:00 +7°C° 0 mm 2 mps 726 mmHg 50%
    07:00 +8°C° 0 mm 1 mps 726 mmHg 50%
    08:00 +8°C° 0 mm 1 mps 726 mmHg 51%
    09:00 +7°C° 0 mm 2 mps 727 mmHg 56%
    10:00 +7°C° 0 mm 3 mps 727 mmHg 61%
    11:00 +7°C° 0 mm 4 mps 727 mmHg 65%
    12:00 +7°C° 0 mm 4 mps 726 mmHg 68%
    13:00 +6°C° 0 mm 4 mps 726 mmHg 70%
    14:00 +6°C° 0 mm 4 mps 726 mmHg 73%
    15:00 +7°C° 0 mm 3 mps 726 mmHg 74%
    16:00 +7°C° 0 mm 3 mps 726 mmHg 75%
    17:00 +6°C° 0 mm 2 mps 726 mmHg 76%
    18:00 +6°C° 0 mm 2 mps 726 mmHg 75%
    19:00 +6°C° 0 mm 2 mps 726 mmHg 73%
    20:00 +7°C° 0 mm 1 mps 726 mmHg 72%
    21:00 +7°C° 0 mm 1 mps 725 mmHg 71%
    22:00 +7°C° 0 mm 1 mps 725 mmHg 71%
    23:00 +7°C° 0 mm 1 mps 725 mmHg 70%

    19 December, Wednesday

    Time Temperature Precipitation Wind Pressure Humidity
    00:00 +7°C° 0.1 mm 1 mps 724 mmHg 71%
    01:00 +7°C° 0.1 mm 1 mps 724 mmHg 71%
    02:00 +6°C° 0.1 mm 2 mps 724 mmHg 72%
    03:00 +6°C° 0 mm 2 mps 723 mmHg 73%
    04:00 +7°C° 0 mm 1 mps 723 mmHg 74%
    05:00 +6°C° 0 mm 1 mps 723 mmHg 75%
    06:00 +6°C° 0.1 mm 1 mps 723 mmHg 76%
    07:00 +6°C° 0.1 mm 1 mps 723 mmHg 77%
    08:00 +6°C° 0.1 mm 1 mps 723 mmHg 78%
    09:00 +7°C° 0.1 mm 1 mps 723 mmHg 77%
    10:00 +7°C° 0.1 mm 1 mps 723 mmHg 75%
    11:00 +7°C° 0.1 mm 2 mps 723 mmHg 74%
    12:00 +7°C° 0 mm 2 mps 723 mmHg 74%
    13:00 +8°C° 0 mm 2 mps 723 mmHg 74%
    14:00 +8°C° 0 mm 2 mps 723 mmHg 74%
    15:00 +8°C° 0 mm 2 mps 723 mmHg 77%
    16:00 +7°C° 0 mm 2 mps 724 mmHg 79%
    17:00 +7°C° 0 mm 2 mps 724 mmHg 82%
    18:00 +6°C° 0.1 mm 2 mps 724 mmHg 84%
    19:00 +7°C° 0.1 mm 1 mps 725 mmHg 86%
    20:00 +7°C° 0.1 mm 1 mps 725 mmHg 88%
    21:00 +7°C° 0.1 mm 1 mps 725 mmHg 89%
    22:00 +6°C° 0.1 mm 1 mps 726 mmHg 89%
    23:00 +5°C° 0.1 mm 2 mps 726 mmHg 90%

    20 December, Thursday

    Time Temperature Precipitation Wind Pressure Humidity
    00:00 +6°C° 0.1 mm 1 mps 726 mmHg 91%
    01:00 +6°C° 0.1 mm 1 mps 726 mmHg 91%
    02:00 +6°C° 0.1 mm 1 mps 726 mmHg 91%
    03:00 +6°C° 0.2 mm 1 mps 726 mmHg 92%
    04:00 +6°C° 0.2 mm 1 mps 727 mmHg 92%
    05:00 +6°C° 0.2 mm 1 mps 727 mmHg 92%
    06:00 +6°C° 0.2 mm 1 mps 727 mmHg 92%
    07:00 +6°C° 0.2 mm 1 mps 727 mmHg 93%
    08:00 +6°C° 0.2 mm 1 mps 728 mmHg 93%
    09:00 +5°C° 0.2 mm 2 mps 728 mmHg 91%
    10:00 +5°C° 0.2 mm 2 mps 728 mmHg 90%
    11:00 +6°C° 0.2 mm 2 mps 728 mmHg 88%
    12:00 +6°C° 0.2 mm 2 mps 728 mmHg 88%
    13:00 +6°C° 0.2 mm 2 mps 728 mmHg 87%
    14:00 +5°C° 0.2 mm 3 mps 727 mmHg 86%
    15:00 +6°C° 0.1 mm 2 mps 727 mmHg 87%
    16:00 +5°C° 0.1 mm 2 mps 728 mmHg 88%
    17:00 +5°C° 0.1 mm 2 mps 728 mmHg 88%
    18:00 +5°C° 0.1 mm 2 mps 728 mmHg 88%
    19:00 +5°C° 0.1 mm 2 mps 728 mmHg 88%
    20:00 +5°C° 0.1 mm 1 mps 728 mmHg 88%
    21:00 +5°C° 0 mm 1 mps 727 mmHg 87%
    22:00 +5°C° 0 mm 1 mps 727 mmHg 86%
    23:00 +4°C° 0 mm 1 mps 727 mmHg 86%
    Show more